SCP
0 0 0 0 0 0 0 0 0 0 0 0 0 0 0 0 0 0 0 0 0 0 0 0 0 0 0 0 0 0 -0 0 0 0 0 0 0 0 0 0 0 0 0 0 0 0 0
0 0 0 0 0 0 0 0 0 0 0 0 0 0 0 0 0 0 0 0 0 0 0 0 0 0 0 0 0 0 -0 0 0 0 0 0 0 0 0 0 0 0 0 0 0 0 0
0 0 0 0 0 0 0 0 0 0 0 0 0 0 0 0 0 0 0 0 -0 -0 -0 0 0 0 0 0 0 0 0 0 0 0 0 0 0 0 0 0 0 0 0 0 0 0 0
0 0 0 0 0 0 0 0 0 0 0 0 0 0 0 0 0 0 0 -0 -0 -0 -0 -0 0 0 0 0 0 0 0 0 0 0 0 0 0 0 0 0 0 0 0 0 0 0 0
-0 -0 0 0 0 0 0 0 0 0 0 0 0 0 0 0 0 0 -0 -0 -0 -0 -0 -0 0 0 0 0 0 0 0 0 0 0 0 0 0 0 0 0 0 0 0 0 0 0 0
-0 -0 -0 0 0 0 0 0 0 0 0 0 0 0 0 0 0 -0 -0 -0 -0 -0 -0 0 0 0 0 0 0 0 0 0 0 0 0 0 0 0 0 0 0 0 0 0 0 0 0
-0 -0 0 0 0 0 0 0 0 0 0 0 0 0 0 0 0 -0 -0 -0 0 0 -0 -0 0 0 0 0 0 0 0 0 0 0 0 0 0 0 0 0 0 0 0 0 0 0 0
-0 -0 -0 -0 0 0 0 0 0 0 0 0 0 0 0 -0 -0 -0 0 0 0 0 -0 -0 -0 -0 0 0 0 0 0 0 0 0 0 0 0 0 0 0 0 0 0 0 0 0 0
-0 -0 -0 -0 -0 0 0 0 0 0 0 0 0 0 0 0 -0 0 0 0 0 0 0 0 0 0 0 0 0 0 0 0 0 0 0 0 0 0 0 0 0 0 0 0 0 0 0
-0 -0 -0 -0 -0 0 -0 -0 -0 -0 -0 0 0 0 0 -0 0 0 0 0 0 0 0 0 0 0 0 0 0 0 0 0 0 0 0 0 0 0 0 0 0 0 0 0 0 0 0
0 -0 -0 -0 -0 -0 -0 -0 -0 -0 -0 -0 -0 0 0 -0 0 0 0 0 0 0 0 0 0 0 0 0 0 0 0 0 0 0 0 0 0 0 0 0 0 0 0 0 0 0 0
-0 -0 -0 -0 -0 -0 -0 -0 -0 -0 -0 -0 0 0 0 0 0 0 0 0 0 0 0 0 0 0 0 0 0 0 0 0 0 0 0 0 0 0 0 0 0 0 0 0 0 0 0
-0 -0 -0 -0 -0 -0 -0 -0 -0 -0 0 0 0 0 0 0 0 0 0 0 0 0 0 0 0 0 0 0 0 0 0 0 0 0 0 0 0 0 0 0 0 0 0 0 0 0 0
0 -0 0 0 0 -0 -0 -0 0 0 0 0 0 0 0 0 0 0 0 0 0 0 0 0 0 0 0 0 0 0 0 0 0 0 0 0 0 0 0 0 0 0 0 0 0 0 0
-0 -0 0 0 0 0 0 0 0 0 0 0 0 0 0 0 0 0 0 0 0 0 0 0 0 0 0 0 0 0 0 0 0 0 0 0 0 0 0 0 0 0 0 0 0 0 0
0 0 0 0 0 0 0 0 0 0 0 0 0 0 0 0 0 0 0 0 0 0 0 0 0 0 0 0 0 0 0 0 0 0 0 0 0 0 0 0 0 0 0 0 0 0 0
0 0 0 0 0 0 0 0 0 0 0 -0 -0 -0 0 0 0 0 0 0 0 0 0 0 0 0 0 0 0 0 0 0 0 0 0 0 0 0 0 0 0 0 0 0 0 0 0
0 0 0 0 0 0 0 0 0 0 0 0 -0 0 0 0 0 0 0 0 0 0 0 0 0 0 0 0 0 0 0 0 0 -0 0 0 0 0 0 0 0 0 0 0 0 0 0
0 0 0 0 0 0 0 0 0 0 0 -0 -0 -0 0 0 0 0 0 0 0 0 0 0 0 0 0 0 0 0 0 0 0 0 0 -0 0 0 0 0 0 0 0 0 0 0 0
0 0 0 0 0 0 0 0 0 0 0 0 0 0 0 0 0 0 0 0 0 0 0 0 0 0 0 0 0 0 0 0 0 -0 0 0 0 0 0 0 0 0 0 0 0 0 0
0 0 0 0 0 0 0 0 0 0 0 0 0 0 0 0 0 0 0 0 0 0 0 0 0 0 0 0 0 0 0 0 -0 0 -0 -0 -0 0 0 0 0 0 0 0 0 0 0
0 0 0 0 0 0 0 0 0 0 0 0 0 0 0 0 0 0 0 0 0 0 0 0 0 0 0 0 0 0 0 0 0 0 0 -0 -0 0 0 0 0 0 0 0 0 0 0
0 0 0 0 0 0 0 0 0 0 0 0 0 0 0 0 0 0 0 0 0 0 0 0 0 0 0 0 0 0 0 0 0 0 0 -0 -0 -0 -0 -0 -0 0 0 0 0 0 0
0 0 0 0 0 0 0 0 0 0 0 0 0 0 0 0 0 0 0 0 0 0 0 0 0 0 0 0 0 0 0 0 0 0 0 0 0 -0 -0 -0 -0 -0 -0 0 0 0 0
0 0 0 0 0 0 0 0 0 0 0 0 0 0 0 0 0 0 0 0 0 0 0 0 0 0 0 0 0 0 0 0 0 0 0 0 0 0 0 -0 -0 -0 -0 -0 0 0 0
0 0 0 0 0 0 0 0 0 0 0 0 0 0 0 0 0 0 0 0 0 0 0 0 0 0 0 0 0 0 0 0 0 0 0 0 0 0 0 0 0 0 -0 -0 0 0 0
0 0 0 0 0 0 0 0 0 0 0 0 0 0 0 0 0 0 0 0 0 0 0 0 0 0 0 0 0 0 0 0 0 0 0 0 0 0 0 0 0 0 0 -0 -0 0 0
0 0 0 0 0 0 0 0 0 0 0 0 0 0 0 0 0 0 0 0 0 0 0 0 0 0 0 0 0 0 0 0 0 0 0 0 0 0 0 0 0 0 -0 -0 -0 -0 -0
0 0 0 0 0 0 0 0 0 0 0 0 0 0 0 0 0 0 0 0 0 0 0 0 0 0 0 0 0 0 0 0 0 0 0 0 0 0 0 0 0 -0 -0 0 -0 -0 -0
Wind_Speed_500mb
50 43 33 23 18 17 15 17 17 19 21 23 23 23 20 21 21 18 19 20 20 20 16 11 8 6 7 4 10 9 11 10 11 14 17 9 16 13 5 11 11 8 10 8 12 6 8
56 53 47 39 28 18 16 13 14 15 17 18 19 20 18 19 17 15 15 16 16 16 13 8 5 2 2 5 7 13 6 13 15 16 9 21 7 10 13 5 12 5 19 16 12 11 12
54 56 55 49 39 30 18 14 11 11 12 13 14 14 14 15 12 11 11 12 14 14 10 4 3 5 10 14 7 15 7 9 12 22 13 15 19 10 7 1 10 5 6 5 15 19 10
50 52 54 56 50 40 30 21 14 11 7 7 9 9 9 9 8 6 6 9 11 12 8 1 4 7 12 11 19 16 11 3 5 10 17 16 19 10 6 7 3 6 5 4 11 29 15
44 47 50 53 54 48 40 30 21 14 10 8 4 3 3 3 2 1 3 7 9 10 8 5 3 7 14 9 11 13 15 10 4 5 7 5 9 8 4 7 5 4 8 15 8 33 10
39 39 43 47 49 50 45 38 28 18 13 10 8 8 8 8 8 7 5 4 6 8 10 15 16 10 17 9 12 15 14 21 15 9 6 10 9 2 2 7 12 13 10 10 13 18 17
36 36 36 38 42 45 46 42 36 27 17 13 11 10 10 10 12 12 6 9 9 7 20 19 8 9 6 16 16 15 16 20 14 17 11 17 6 16 22 19 13 7 8 12 12 13 18
33 34 33 33 34 37 40 41 40 34 26 17 11 9 9 10 13 14 8 15 12 15 22 33 46 37 22 15 7 18 24 19 14 12 12 5 17 22 19 19 24 25 18 14 13 6 18
33 31 30 28 26 27 28 30 32 33 33 28 23 18 15 12 12 10 7 13 18 23 11 20 25 39 34 25 12 24 40 20 12 12 17 15 15 21 22 18 16 25 16 8 13 4 8
33 33 32 30 26 23 22 23 24 24 23 25 26 21 17 10 6 9 5 13 18 20 7 8 6 8 27 12 14 32 49 18 13 20 17 17 37 26 12 14 14 16 7 10 15 5 10
33 33 33 33 30 28 25 22 19 19 20 21 22 23 19 11 3 4 11 19 16 9 9 6 7 13 13 20 3 8 39 30 11 10 7 18 11 13 16 20 14 14 9 6 6 6 3
31 32 33 34 35 35 32 27 23 20 18 16 15 16 16 10 5 9 14 12 14 9 11 5 9 6 8 17 7 7 11 12 8 10 23 17 17 11 16 4 6 15 8 7 9 6 10
35 35 33 33 34 34 34 34 32 28 24 20 17 12 9 9 6 11 9 6 9 6 7 4 9 10 11 9 10 11 9 8 11 5 12 7 22 8 12 8 3 6 14 3 5 3 20
40 38 38 34 32 34 36 36 36 34 32 27 22 18 11 7 9 4 2 9 2 10 10 12 20 8 12 10 16 20 11 10 16 8 6 11 15 27 18 32 19 23 22 13 16 11 19
42 40 43 45 42 36 36 36 33 32 32 27 18 12 9 4 6 7 4 6 14 9 3 17 15 9 8 9 10 13 20 15 17 35 17 10 17 12 16 15 33 14 22 24 5 6 4
41 42 43 45 47 48 46 44 42 39 34 29 19 10 5 2 7 6 7 9 9 11 18 11 9 12 12 15 9 12 7 11 20 31 52 14 31 23 13 9 13 16 14 6 5 11 14
40 39 40 43 46 47 46 44 44 41 34 24 12 9 11 3 10 7 6 11 10 30 40 9 11 20 12 11 18 16 14 15 8 16 23 31 15 30 4 12 32 9 18 9 10 13 14
36 39 38 39 42 44 46 48 47 42 35 26 10 7 11 8 1 6 6 6 27 28 37 22 28 24 26 24 38 35 43 18 44 19 23 17 22 37 55 18 22 33 25 46 16 10 14
30 36 37 38 41 45 46 49 51 50 51 36 12 10 9 9 1 6 19 17 40 16 15 13 10 15 19 16 19 12 19 38 47 35 31 17 12 22 27 6 4 13 26 15 37 3 35
34 37 37 36 38 40 42 45 48 46 45 24 11 8 9 4 15 9 12 13 11 41 29 38 25 27 21 27 27 20 28 15 50 41 40 24 12 30 34 34 12 14 24 38 30 25 51
37 40 37 38 37 37 36 39 43 43 36 22 16 9 12 9 12 25 13 10 22 17 18 37 14 24 28 19 29 25 32 38 24 37 14 10 13 22 42 46 38 41 40 52 51 60 42
38 39 38 39 34 34 35 36 34 39 40 24 11 13 15 24 23 16 13 9 24 15 24 12 27 33 28 21 27 29 24 17 16 7 13 4 12 32 48 47 50 52 57 50 53 61 61
38 38 38 39 38 32 29 30 30 31 35 14 14 10 13 11 7 9 8 8 31 42 11 47 34 31 27 34 39 46 47 44 35 26 31 12 8 8 22 39 36 41 35 51 50 47 43
35 36 37 38 38 34 31 26 23 25 23 25 24 20 9 8 9 11 26 42 35 35 30 46 55 33 30 48 57 51 50 43 42 42 45 31 29 14 16 23 27 28 32 42 47 57 53
36 37 38 39 38 35 31 26 23 20 21 22 27 18 14 12 19 37 37 30 43 49 34 37 69 49 49 35 9 15 22 24 20 40 40 34 24 11 11 23 33 41 25 32 23 38 50
37 39 40 40 40 39 37 31 26 23 23 27 28 26 28 22 16 42 20 31 24 27 30 34 31 42 54 6 6 7 11 25 12 18 13 0 21 19 22 18 10 25 24 14 25 29 40
38 40 41 41 41 40 39 34 30 28 25 30 34 34 38 45 54 55 41 23 42 34 18 41 16 17 20 9 14 16 20 14 23 33 27 6 9 27 27 23 14 32 30 31 8 15 47
39 40 41 39 42 41 40 38 38 38 34 34 39 40 46 56 65 77 79 66 66 50 24 42 29 22 6 6 7 8 8 7 8 10 20 17 10 9 9 11 17 27 17 16 10 30 48
40 42 42 42 43 43 42 41 45 46 36 32 48 45 53 59 69 74 87 97 89 74 70 62 49 47 12 7 5 5 8 10 29 31 14 11 17 10 14 14 41 73 66 44 28 53 67
Wind_Direction_500mb
39 38 36 34 45 45 50 65 65 72 80 86 91 93 94 100 107 115 124 135 137 134 130 126 116 132 158 233 248 253 318 202 176 167 144 189 229 223 241 211 183 198 211 179 147 222 258
41 38 36 34 30 39 49 57 76 76 79 87 95 97 100 99 104 119 135 146 148 146 138 128 105 131 236 266 264 280 271 182 192 171 169 201 223 261 252 252 161 316 169 165 169 210 238
38 39 39 36 34 31 36 53 61 80 91 95 97 99 100 102 108 123 145 162 168 167 154 139 18 315 244 255 257 294 221 205 225 178 193 227 247 247 327 295 219 178 142 195 201 197 221
34 36 37 37 36 36 34 32 43 46 56 87 96 101 106 107 110 124 166 185 187 186 176 196 333 316 264 262 265 269 223 189 232 180 212 224 223 253 260 145 158 167 127 203 246 180 214
32 31 33 37 39 40 39 37 34 31 31 25 42 85 94 73 50 30 236 216 214 212 206 243 249 302 273 248 261 220 188 186 223 215 245 177 196 226 167 112 26 268 225 219 307 187 146
29 30 29 31 35 40 41 42 39 37 30 20 13 4 356 348 337 332 298 227 234 236 239 262 236 280 233 259 213 227 199 184 179 171 221 195 222 146 46 111 208 206 225 235 207 216 178
17 20 25 28 30 31 35 38 39 43 40 30 17 2 352 348 347 353 359 343 333 279 240 221 193 220 202 213 246 229 199 174 198 200 192 201 147 211 210 209 222 225 211 235 264 237 167
15 18 19 23 25 26 27 29 31 31 30 24 14 5 358 356 353 354 40 21 2 328 299 267 247 248 250 216 220 200 187 187 190 210 233 298 232 229 222 223 227 246 257 266 296 198 178
9 9 11 17 19 18 22 26 25 25 24 20 9 356 344 346 0 30 349 339 325 318 274 294 247 230 224 229 238 223 192 202 212 213 217 191 230 230 218 252 205 233 219 237 236 317 262
1 2 5 5 2 1 3 5 10 16 18 17 13 3 355 343 51 23 14 347 315 324 3 263 212 232 197 201 253 220 207 190 226 211 223 234 236 235 200 230 204 236 193 237 244 135 241
359 357 356 356 355 355 351 344 343 346 354 1 5 11 2 353 313 349 326 322 331 332 353 158 137 162 189 180 263 176 202 213 227 242 160 236 168 179 198 213 193 234 155 164 206 209 333
8 4 360 356 352 352 349 344 337 327 321 324 339 353 6 356 299 313 332 321 321 37 262 191 138 186 119 242 286 168 190 219 268 248 264 232 275 187 198 128 194 154 101 45 32 84 273
5 4 3 2 357 355 353 347 341 332 318 302 298 306 324 316 309 346 336 341 31 144 294 208 233 176 196 210 226 193 183 199 207 179 245 262 240 216 178 140 23 160 102 288 285 181 239
19 15 10 11 6 2 358 358 353 342 330 318 309 292 275 265 273 297 240 58 89 267 303 46 346 204 190 211 240 197 196 237 239 286 322 204 285 176 196 201 187 198 166 172 203 210 259
16 18 16 12 16 19 18 13 7 357 347 337 324 298 283 70 307 226 212 117 208 221 51 349 341 280 249 264 244 222 216 211 199 194 200 241 254 214 200 179 175 194 212 209 286 168 292
22 19 13 10 11 10 11 14 12 12 7 4 16 24 55 245 238 214 67 242 254 327 318 332 241 239 281 298 341 334 260 234 232 207 206 233 275 254 244 195 233 160 167 100 195 215 227
16 10 7 9 10 10 10 12 12 12 11 12 27 27 39 165 201 160 183 233 288 292 294 289 300 281 271 295 295 290 246 303 289 322 246 236 213 256 136 226 190 191 220 219 179 169 195
3 4 12 13 12 9 9 9 14 14 18 14 36 46 33 36 74 232 206 255 335 335 331 321 295 276 269 270 274 272 277 261 346 347 314 277 236 246 238 215 204 230 225 207 204 251 245
353 356 3 10 9 10 10 10 15 18 12 13 16 331 325 316 78 310 311 315 312 308 358 343 301 349 334 323 313 308 321 351 26 21 1 339 309 275 255 305 309 221 231 225 236 92 234
5 6 8 9 6 3 3 4 8 19 17 26 16 6 7 280 293 352 346 285 325 328 327 326 308 313 327 310 298 289 305 313 325 327 345 334 256 270 279 262 200 197 218 222 215 234 245
0 2 4 2 9 6 3 2 0 13 22 30 25 38 11 332 338 331 310 298 310 317 314 331 324 355 357 326 308 291 309 305 307 307 10 32 292 315 317 318 321 309 235 219 216 227 232
354 352 354 356 3 359 3 5 1 2 18 57 37 4 348 307 316 327 322 311 302 343 352 326 331 324 330 313 314 327 345 332 292 279 309 226 274 299 289 298 317 315 303 294 230 233 239
344 343 343 346 352 354 355 356 360 358 6 30 356 308 311 254 293 320 243 329 323 327 318 318 314 316 312 308 311 306 305 280 249 267 281 268 245 262 269 274 281 294 297 285 292 255 241
333 334 337 338 341 347 348 346 351 359 354 332 327 322 283 266 262 255 286 301 296 304 302 304 300 292 308 321 323 316 297 271 245 243 231 252 259 254 265 275 246 247 243 271 277 276 273
324 327 330 332 335 336 336 332 332 334 336 324 312 294 285 280 279 274 280 278 294 290 285 300 296 289 319 329 314 311 303 288 256 244 251 222 243 258 259 274 278 288 258 279 2 311 325
318 320 322 325 326 326 326 324 318 316 314 315 307 297 271 278 244 259 290 294 296 285 284 269 277 301 305 325 331 267 276 287 284 325 3 53 211 231 264 262 281 307 267 292 5 269 6
312 315 318 320 321 323 324 322 313 302 300 306 298 301 277 273 268 269 260 272 274 276 278 284 300 303 293 251 270 262 269 257 270 270 299 284 269 233 249 269 277 265 299 345 2 335 341
309 312 315 316 318 320 317 316 312 308 297 295 290 288 286 276 276 273 272 266 268 265 271 279 296 277 242 214 228 240 228 269 285 311 294 287 286 282 281 211 260 28 338 341 9 325 318
307 308 313 314 315 314 313 313 309 314 306 296 292 287 291 278 273 278 273 273 268 266 265 266 256 261 273 248 271 297 296 279 286 285 284 246 200 239 186 243 262 294 288 293 306 318 308
Wind_Speed_850mb
50 43 33 23 18 17 15 17 17 19 21 23 23 23 20 21 21 18 19 20 20 20 16 11 8 6 7 4 10 9 11 10 11 14 17 9 16 13 5 11 11 8 10 8 12 6 8
56 53 47 39 28 18 16 13 14 15 17 18 19 20 18 19 17 15 15 16 16 16 13 8 5 2 2 5 7 13 6 13 15 16 9 21 7 10 13 5 12 5 19 16 12 11 12
54 56 55 49 39 30 18 14 11 11 12 13 14 14 14 15 12 11 11 12 14 14 10 4 3 5 10 14 7 15 7 9 12 22 13 15 19 10 7 1 10 5 6 5 15 19 10
50 52 54 56 50 40 30 21 14 11 7 7 9 9 9 9 8 6 6 9 11 12 8 1 4 7 12 11 19 16 11 3 5 10 17 16 19 10 6 7 3 6 5 4 11 29 15
44 47 50 53 54 48 40 30 21 14 10 8 4 3 3 3 2 1 3 7 9 10 8 5 3 7 14 9 11 13 15 10 4 5 7 5 9 8 4 7 5 4 8 15 8 33 10
39 39 43 47 49 50 45 38 28 18 13 10 8 8 8 8 8 7 5 4 6 8 10 15 16 10 17 9 12 15 14 21 15 9 6 10 9 2 2 7 12 13 10 10 13 18 17
36 36 36 38 42 45 46 42 36 27 17 13 11 10 10 10 12 12 6 9 9 7 20 19 8 9 6 16 16 15 16 20 14 17 11 17 6 16 22 19 13 7 8 12 12 13 18
33 34 33 33 34 37 40 41 40 34 26 17 11 9 9 10 13 14 8 15 12 15 22 33 46 37 22 15 7 18 24 19 14 12 12 5 17 22 19 19 24 25 18 14 13 6 18
33 31 30 28 26 27 28 30 32 33 33 28 23 18 15 12 12 10 7 13 18 23 11 20 25 39 34 25 12 24 40 20 12 12 17 15 15 21 22 18 16 25 16 8 13 4 8
33 33 32 30 26 23 22 23 24 24 23 25 26 21 17 10 6 9 5 13 18 20 7 8 6 8 27 12 14 32 49 18 13 20 17 17 37 26 12 14 14 16 7 10 15 5 10
33 33 33 33 30 28 25 22 19 19 20 21 22 23 19 11 3 4 11 19 16 9 9 6 7 13 13 20 3 8 39 30 11 10 7 18 11 13 16 20 14 14 9 6 6 6 3
31 32 33 34 35 35 32 27 23 20 18 16 15 16 16 10 5 9 14 12 14 9 11 5 9 6 8 17 7 7 11 12 8 10 23 17 17 11 16 4 6 15 8 7 9 6 10
35 35 33 33 34 34 34 34 32 28 24 20 17 12 9 9 6 11 9 6 9 6 7 4 9 10 11 9 10 11 9 8 11 5 12 7 22 8 12 8 3 6 14 3 5 3 20
40 38 38 34 32 34 36 36 36 34 32 27 22 18 11 7 9 4 2 9 2 10 10 12 20 8 12 10 16 20 11 10 16 8 6 11 15 27 18 32 19 23 22 13 16 11 19
42 40 43 45 42 36 36 36 33 32 32 27 18 12 9 4 6 7 4 6 14 9 3 17 15 9 8 9 10 13 20 15 17 35 17 10 17 12 16 15 33 14 22 24 5 6 4
41 42 43 45 47 48 46 44 42 39 34 29 19 10 5 2 7 6 7 9 9 11 18 11 9 12 12 15 9 12 7 11 20 31 52 14 31 23 13 9 13 16 14 6 5 11 14
40 39 40 43 46 47 46 44 44 41 34 24 12 9 11 3 10 7 6 11 10 30 40 9 11 20 12 11 18 16 14 15 8 16 23 31 15 30 4 12 32 9 18 9 10 13 14
36 39 38 39 42 44 46 48 47 42 35 26 10 7 11 8 1 6 6 6 27 28 37 22 28 24 26 24 38 35 43 18 44 19 23 17 22 37 55 18 22 33 25 46 16 10 14
30 36 37 38 41 45 46 49 51 50 51 36 12 10 9 9 1 6 19 17 40 16 15 13 10 15 19 16 19 12 19 38 47 35 31 17 12 22 27 6 4 13 26 15 37 3 35
34 37 37 36 38 40 42 45 48 46 45 24 11 8 9 4 15 9 12 13 11 41 29 38 25 27 21 27 27 20 28 15 50 41 40 24 12 30 34 34 12 14 24 38 30 25 51
37 40 37 38 37 37 36 39 43 43 36 22 16 9 12 9 12 25 13 10 22 17 18 37 14 24 28 19 29 25 32 38 24 37 14 10 13 22 42 46 38 41 40 52 51 60 42
38 39 38 39 34 34 35 36 34 39 40 24 11 13 15 24 23 16 13 9 24 15 24 12 27 33 28 21 27 29 24 17 16 7 13 4 12 32 48 47 50 52 57 50 53 61 61
38 38 38 39 38 32 29 30 30 31 35 14 14 10 13 11 7 9 8 8 31 42 11 47 34 31 27 34 39 46 47 44 35 26 31 12 8 8 22 39 36 41 35 51 50 47 43
35 36 37 38 38 34 31 26 23 25 23 25 24 20 9 8 9 11 26 42 35 35 30 46 55 33 30 48 57 51 50 43 42 42 45 31 29 14 16 23 27 28 32 42 47 57 53
36 37 38 39 38 35 31 26 23 20 21 22 27 18 14 12 19 37 37 30 43 49 34 37 69 49 49 35 9 15 22 24 20 40 40 34 24 11 11 23 33 41 25 32 23 38 50
37 39 40 40 40 39 37 31 26 23 23 27 28 26 28 22 16 42 20 31 24 27 30 34 31 42 54 6 6 7 11 25 12 18 13 0 21 19 22 18 10 25 24 14 25 29 40
38 40 41 41 41 40 39 34 30 28 25 30 34 34 38 45 54 55 41 23 42 34 18 41 16 17 20 9 14 16 20 14 23 33 27 6 9 27 27 23 14 32 30 31 8 15 47
39 40 41 39 42 41 40 38 38 38 34 34 39 40 46 56 65 77 79 66 66 50 24 42 29 22 6 6 7 8 8 7 8 10 20 17 10 9 9 11 17 27 17 16 10 30 48
40 42 42 42 43 43 42 41 45 46 36 32 48 45 53 59 69 74 87 97 89 74 70 62 49 47 12 7 5 5 8 10 29 31 14 11 17 10 14 14 41 73 66 44 28 53 67
Wind_Direction_850mb
39 38 36 34 45 45 50 65 65 72 80 86 91 93 94 100 107 115 124 135 137 134 130 126 116 132 158 233 248 253 318 202 176 167 144 189 229 223 241 211 183 198 211 179 147 222 258
41 38 36 34 30 39 49 57 76 76 79 87 95 97 100 99 104 119 135 146 148 146 138 128 105 131 236 266 264 280 271 182 192 171 169 201 223 261 252 252 161 316 169 165 169 210 238
38 39 39 36 34 31 36 53 61 80 91 95 97 99 100 102 108 123 145 162 168 167 154 139 18 315 244 255 257 294 221 205 225 178 193 227 247 247 327 295 219 178 142 195 201 197 221
34 36 37 37 36 36 34 32 43 46 56 87 96 101 106 107 110 124 166 185 187 186 176 196 333 316 264 262 265 269 223 189 232 180 212 224 223 253 260 145 158 167 127 203 246 180 214
32 31 33 37 39 40 39 37 34 31 31 25 42 85 94 73 50 30 236 216 214 212 206 243 249 302 273 248 261 220 188 186 223 215 245 177 196 226 167 112 26 268 225 219 307 187 146
29 30 29 31 35 40 41 42 39 37 30 20 13 4 356 348 337 332 298 227 234 236 239 262 236 280 233 259 213 227 199 184 179 171 221 195 222 146 46 111 208 206 225 235 207 216 178
17 20 25 28 30 31 35 38 39 43 40 30 17 2 352 348 347 353 359 343 333 279 240 221 193 220 202 213 246 229 199 174 198 200 192 201 147 211 210 209 222 225 211 235 264 237 167
15 18 19 23 25 26 27 29 31 31 30 24 14 5 358 356 353 354 40 21 2 328 299 267 247 248 250 216 220 200 187 187 190 210 233 298 232 229 222 223 227 246 257 266 296 198 178
9 9 11 17 19 18 22 26 25 25 24 20 9 356 344 346 0 30 349 339 325 318 274 294 247 230 224 229 238 223 192 202 212 213 217 191 230 230 218 252 205 233 219 237 236 317 262
1 2 5 5 2 1 3 5 10 16 18 17 13 3 355 343 51 23 14 347 315 324 3 263 212 232 197 201 253 220 207 190 226 211 223 234 236 235 200 230 204 236 193 237 244 135 241
359 357 356 356 355 355 351 344 343 346 354 1 5 11 2 353 313 349 326 322 331 332 353 158 137 162 189 180 263 176 202 213 227 242 160 236 168 179 198 213 193 234 155 164 206 209 333
8 4 360 356 352 352 349 344 337 327 321 324 339 353 6 356 299 313 332 321 321 37 262 191 138 186 119 242 286 168 190 219 268 248 264 232 275 187 198 128 194 154 101 45 32 84 273
5 4 3 2 357 355 353 347 341 332 318 302 298 306 324 316 309 346 336 341 31 144 294 208 233 176 196 210 226 193 183 199 207 179 245 262 240 216 178 140 23 160 102 288 285 181 239
19 15 10 11 6 2 358 358 353 342 330 318 309 292 275 265 273 297 240 58 89 267 303 46 346 204 190 211 240 197 196 237 239 286 322 204 285 176 196 201 187 198 166 172 203 210 259
16 18 16 12 16 19 18 13 7 357 347 337 324 298 283 70 307 226 212 117 208 221 51 349 341 280 249 264 244 222 216 211 199 194 200 241 254 214 200 179 175 194 212 209 286 168 292
22 19 13 10 11 10 11 14 12 12 7 4 16 24 55 245 238 214 67 242 254 327 318 332 241 239 281 298 341 334 260 234 232 207 206 233 275 254 244 195 233 160 167 100 195 215 227
16 10 7 9 10 10 10 12 12 12 11 12 27 27 39 165 201 160 183 233 288 292 294 289 300 281 271 295 295 290 246 303 289 322 246 236 213 256 136 226 190 191 220 219 179 169 195
3 4 12 13 12 9 9 9 14 14 18 14 36 46 33 36 74 232 206 255 335 335 331 321 295 276 269 270 274 272 277 261 346 347 314 277 236 246 238 215 204 230 225 207 204 251 245
353 356 3 10 9 10 10 10 15 18 12 13 16 331 325 316 78 310 311 315 312 308 358 343 301 349 334 323 313 308 321 351 26 21 1 339 309 275 255 305 309 221 231 225 236 92 234
5 6 8 9 6 3 3 4 8 19 17 26 16 6 7 280 293 352 346 285 325 328 327 326 308 313 327 310 298 289 305 313 325 327 345 334 256 270 279 262 200 197 218 222 215 234 245
0 2 4 2 9 6 3 2 0 13 22 30 25 38 11 332 338 331 310 298 310 317 314 331 324 355 357 326 308 291 309 305 307 307 10 32 292 315 317 318 321 309 235 219 216 227 232
354 352 354 356 3 359 3 5 1 2 18 57 37 4 348 307 316 327 322 311 302 343 352 326 331 324 330 313 314 327 345 332 292 279 309 226 274 299 289 298 317 315 303 294 230 233 239
344 343 343 346 352 354 355 356 360 358 6 30 356 308 311 254 293 320 243 329 323 327 318 318 314 316 312 308 311 306 305 280 249 267 281 268 245 262 269 274 281 294 297 285 292 255 241
333 334 337 338 341 347 348 346 351 359 354 332 327 322 283 266 262 255 286 301 296 304 302 304 300 292 308 321 323 316 297 271 245 243 231 252 259 254 265 275 246 247 243 271 277 276 273
324 327 330 332 335 336 336 332 332 334 336 324 312 294 285 280 279 274 280 278 294 290 285 300 296 289 319 329 314 311 303 288 256 244 251 222 243 258 259 274 278 288 258 279 2 311 325
318 320 322 325 326 326 326 324 318 316 314 315 307 297 271 278 244 259 290 294 296 285 284 269 277 301 305 325 331 267 276 287 284 325 3 53 211 231 264 262 281 307 267 292 5 269 6
312 315 318 320 321 323 324 322 313 302 300 306 298 301 277 273 268 269 260 272 274 276 278 284 300 303 293 251 270 262 269 257 270 270 299 284 269 233 249 269 277 265 299 345 2 335 341
309 312 315 316 318 320 317 316 312 308 297 295 290 288 286 276 276 273 272 266 268 265 271 279 296 277 242 214 228 240 228 269 285 311 294 287 286 282 281 211 260 28 338 341 9 325 318
307 308 313 314 315 314 313 313 309 314 306 296 292 287 291 278 273 278 273 273 268 266 265 266 256 261 273 248 271 297 296 279 286 285 284 246 200 239 186 243 262 294 288 293 306 318 308